CFG8AT EDDF-LGRP

Flight info

Callsign CFG8AT
Flight time N/A
Altitude 37000
Route CINDY8S/18 CINDY Z74 LAMPU DCT NOMBO Y161 MAH DCT VAVOR DCT RADIZ DCT GORPA DCT DEVUL DCT LIKVI DCT REMSO DCT MEDUX UM867 KOGAT DCT ERANA DCT TSL UN130 MES UN139 LURUS UL995 USINI/N0407F230 L995 CODIC
Aircraft A320/M-SDE3FGHIRWY/LB1

Departure

Time 2026-05-04 11:42
Airport Frankfurt Main Airport (EDDF)

Arrival

Time N/A
Airport Rhodes International Airport "Diagoras" (LGRP)
Time Latitude Longitude Altitude Speed Heading
2026-05-04 11:22 50.03911 8.54129 364 ft 0 kts 250°
2026-05-04 11:33 50.03911 8.54131 357 ft 2 kts 250°
2026-05-04 11:34 50.03919 8.54165 357 ft 2 kts 250°
2026-05-04 11:34 50.03928 8.54198 360 ft 3 kts 244°
2026-05-04 11:34 50.03941 8.54230 361 ft 4 kts 216°
2026-05-04 11:34 50.03964 8.54241 357 ft 4 kts 167°
2026-05-04 11:35 50.03989 8.54228 359 ft 3 kts 160°
2026-05-04 11:35 50.03973 8.54237 357 ft 4 kts 160°
2026-05-04 11:35 50.03950 8.54251 358 ft 2 kts 160°
2026-05-04 11:35 50.03949 8.54251 359 ft 0 kts 160°
2026-05-04 11:38 50.03944 8.54254 357 ft 5 kts 160°
2026-05-04 11:39 50.03868 8.54296 359 ft 13 kts 164°
2026-05-04 11:39 50.03806 8.54245 357 ft 10 kts 241°
2026-05-04 11:40 50.03578 8.53309 357 ft 21 kts 250°
2026-05-04 11:41 50.03518 8.53051 360 ft 27 kts 250°
2026-05-04 11:41 50.03450 8.52795 359 ft 23 kts 244°
2026-05-04 11:41 50.03389 8.52615 359 ft 18 kts 213°
2026-05-04 11:41 50.03247 8.52594 359 ft 35 kts 180°
2026-05-04 11:42 50.02702 8.52597 358 ft 119 kts 180°
2026-05-04 11:42 50.01643 8.52601 374 ft 181 kts 180°
2026-05-04 11:42 50.00325 8.52644 983 ft 195 kts 179°
2026-05-04 11:42 49.98881 8.52664 1777 ft 216 kts 182°
2026-05-04 11:43 49.97367 8.52914 2805 ft 224 kts 161°
2026-05-04 11:43 49.96037 8.54310 3627 ft 245 kts 130°
2026-05-04 11:43 49.95136 8.56536 3907 ft 243 kts 121°
2026-05-04 11:43 49.94347 8.58860 4133 ft 247 kts 111°
2026-05-04 11:44 49.93996 8.61499 4944 ft 260 kts 94°
2026-05-04 11:44 49.93903 8.64460 5403 ft 280 kts 94°
2026-05-04 11:44 49.93603 8.67415 6268 ft 284 kts 110°
2026-05-04 11:44 49.92700 8.70142 7124 ft 284 kts 129°
2026-05-04 11:45 49.91280 8.72295 7998 ft 282 kts 147°
2026-05-04 11:45 49.89678 8.74064 8851 ft 283 kts 144°
2026-05-04 11:45 49.88270 8.76219 9706 ft 287 kts 130°
2026-05-04 11:45 49.87200 8.78871 10346 ft 299 kts 122°
2026-05-04 11:46 49.86161 8.81749 10564 ft 322 kts 122°
2026-05-04 11:46 49.85008 8.84943 10750 ft 346 kts 121°
2026-05-04 11:46 49.83811 8.88254 11225 ft 356 kts 121°
2026-05-04 11:46 49.82591 8.91622 11902 ft 361 kts 121°
2026-05-04 11:47 49.81355 8.95031 12570 ft 365 kts 121°
2026-05-04 11:47 49.80104 8.98466 13242 ft 369 kts 121°
2026-05-04 11:47 49.78832 9.01944 13902 ft 373 kts 121°
2026-05-04 11:47 49.77562 9.05408 14505 ft 376 kts 122°
2026-05-04 11:48 49.76351 9.09085 15119 ft 382 kts 114°
2026-05-04 11:48 49.75568 9.13043 15679 ft 388 kts 106°
2026-05-04 11:48 49.74750 9.17017 16221 ft 388 kts 116°
2026-05-04 11:48 49.73454 9.20683 16800 ft 389 kts 127°
2026-05-04 11:49 49.71759 9.23936 17371 ft 390 kts 134°
2026-05-04 11:49 49.69982 9.27057 17962 ft 393 kts 134°
2026-05-04 11:49 49.68170 9.30250 18493 ft 397 kts 134°
2026-05-04 11:49 49.66348 9.33461 18967 ft 401 kts 134°
2026-05-04 11:50 49.64501 9.36714 19473 ft 404 kts 134°
2026-05-04 11:50 49.62611 9.39930 19949 ft 405 kts 139°
2026-05-04 11:50 49.60435 9.42681 20443 ft 404 kts 149°
2026-05-04 11:50 49.58002 9.44963 20928 ft 406 kts 152°
2026-05-04 11:51 49.55596 9.47154 21392 ft 408 kts 152°
2026-05-04 11:51 49.53142 9.49391 21849 ft 411 kts 152°
2026-05-04 11:51 49.50676 9.51642 22290 ft 413 kts 152°
2026-05-04 11:51 49.48162 9.53937 22743 ft 416 kts 152°
2026-05-04 11:52 49.45701 9.56186 23168 ft 419 kts 152°
2026-05-04 11:52 49.43191 9.58474 23571 ft 421 kts 152°
2026-05-04 11:52 49.40660 9.60774 23916 ft 423 kts 152°
2026-05-04 11:52 49.38122 9.63075 24260 ft 425 kts 152°
2026-05-04 11:53 49.35566 9.65405 24606 ft 428 kts 150°
2026-05-04 11:53 49.33167 9.68149 24923 ft 434 kts 141°
2026-05-04 11:53 49.30996 9.71397 25250 ft 437 kts 138°
2026-05-04 11:53 49.28842 9.74702 25574 ft 439 kts 138°
2026-05-04 11:55 49.13449 9.98085 27637 ft 452 kts 139°
2026-05-04 11:55 49.11213 10.01476 27888 ft 453 kts 139°
2026-05-04 11:56 49.08970 10.04865 28131 ft 455 kts 139°
2026-05-04 11:56 49.06710 10.08271 28383 ft 457 kts 139°
2026-05-04 11:56 49.04431 10.11652 28617 ft 458 kts 140°
2026-05-04 11:56 49.02115 10.14978 28856 ft 458 kts 141°
2026-05-04 11:57 48.99774 10.18268 29175 ft 457 kts 141°
2026-05-04 11:57 48.97423 10.21534 29491 ft 456 kts 141°
2026-05-04 11:57 48.95080 10.24786 29803 ft 456 kts 141°
2026-05-04 11:57 48.92748 10.28039 30138 ft 455 kts 141°
2026-05-04 11:58 48.90426 10.31302 30409 ft 454 kts 141°
2026-05-04 11:58 48.88108 10.34571 30668 ft 454 kts 141°
2026-05-04 11:58 48.85791 10.37839 30926 ft 454 kts 141°
2026-05-04 11:58 48.83476 10.41105 31180 ft 454 kts 141°
2026-05-04 11:59 48.81199 10.44425 31432 ft 455 kts 139°
2026-05-04 11:59 48.78984 10.47871 31664 ft 456 kts 137°
2026-05-04 11:59 48.76821 10.51389 31913 ft 457 kts 136°
2026-05-04 11:59 48.74675 10.54935 32162 ft 457 kts 136°
2026-05-04 12:00 48.72522 10.58484 32418 ft 457 kts 136°
2026-05-04 12:00 48.70364 10.62008 32668 ft 457 kts 137°
2026-05-04 12:00 48.68189 10.65512 32923 ft 456 kts 137°
2026-05-04 12:00 48.66010 10.68986 33171 ft 456 kts 137°
2026-05-04 12:01 48.63814 10.72456 33412 ft 455 kts 138°
2026-05-04 12:01 48.61619 10.75907 33659 ft 455 kts 138°
2026-05-04 12:02 48.48615 10.96603 35033 ft 453 kts 137°
2026-05-04 12:03 48.46447 11.00040 35240 ft 452 kts 137°
2026-05-04 12:03 48.44270 11.03448 35441 ft 452 kts 137°
2026-05-04 12:03 48.42083 11.06847 35635 ft 451 kts 138°
2026-05-04 12:03 48.39894 11.10230 35824 ft 451 kts 138°
2026-05-04 12:04 48.37671 11.13661 36010 ft 451 kts 138°
2026-05-04 12:04 48.35514 11.16992 36189 ft 451 kts 137°
2026-05-04 12:04 48.33343 11.20351 36363 ft 450 kts 137°
2026-05-04 12:04 48.31151 11.23744 36545 ft 450 kts 137°
2026-05-04 12:05 48.28982 11.27101 36717 ft 450 kts 137°
2026-05-04 12:05 48.26856 11.30584 36884 ft 451 kts 131°
2026-05-04 12:05 48.25066 11.34476 36991 ft 456 kts 123°
2026-05-04 12:05 48.23486 11.38602 37000 ft 457 kts 123°
2026-05-04 12:06 48.20306 11.46869 36999 ft 457 kts 123°
2026-05-04 12:06 48.17647 11.53723 36998 ft 457 kts 123°
2026-05-04 12:07 48.14446 11.61954 36993 ft 457 kts 123°
2026-05-04 12:07 48.11249 11.70169 36992 ft 457 kts 123°
2026-05-04 12:08 48.08038 11.78374 36988 ft 457 kts 123°
2026-05-04 12:08 48.04820 11.86571 36988 ft 457 kts 123°
2026-05-04 12:09 48.01605 11.94755 36991 ft 457 kts 123°
2026-05-04 12:09 47.98385 12.02928 36995 ft 457 kts 123°
2026-05-04 12:10 47.95153 12.11086 36985 ft 456 kts 124°
2026-05-04 12:10 47.91158 12.18304 36994 ft 449 kts 142°
2026-05-04 12:11 47.86405 12.24229 36992 ft 448 kts 143°
2026-05-04 12:11 47.81598 12.30242 36979 ft 449 kts 143°
2026-05-04 12:12 47.76854 12.36181 36987 ft 449 kts 142°
2026-05-04 12:12 47.72071 12.42152 36985 ft 449 kts 142°
2026-05-04 12:14 47.53972 12.67714 37001 ft 452 kts 135°
2026-05-04 12:15 47.49686 12.74523 36993 ft 451 kts 135°
2026-05-04 12:15 47.45404 12.81315 37003 ft 451 kts 135°
2026-05-04 12:16 47.41124 12.88090 37011 ft 451 kts 135°
2026-05-04 12:16 47.36840 12.94859 37016 ft 451 kts 135°
2026-05-04 12:17 47.32554 13.01618 37021 ft 452 kts 135°
2026-05-04 12:17 47.28256 13.08367 37024 ft 451 kts 135°
2026-05-04 12:18 47.23954 13.15105 37026 ft 451 kts 135°
2026-05-04 12:18 47.19653 13.21832 37030 ft 451 kts 135°
2026-05-04 12:19 47.15350 13.28553 37035 ft 452 kts 135°
2026-05-04 12:19 47.11039 13.35266 37035 ft 452 kts 135°
2026-05-04 12:20 47.06725 13.41955 37046 ft 452 kts 135°
2026-05-04 12:20 47.02398 13.48652 37047 ft 452 kts 135°
2026-05-04 12:21 46.98096 13.55291 37046 ft 452 kts 136°
2026-05-04 12:21 46.93752 13.61970 37041 ft 453 kts 135°
2026-05-04 12:22 46.89409 13.68647 37034 ft 453 kts 136°
2026-05-04 12:22 46.85058 13.75317 37034 ft 453 kts 136°
2026-05-04 12:23 46.80701 13.81980 37034 ft 454 kts 136°
2026-05-04 12:23 46.76328 13.88653 37036 ft 455 kts 135°
2026-05-04 12:24 46.71949 13.95317 37046 ft 455 kts 136°
2026-05-04 12:24 46.67563 14.01968 37048 ft 455 kts 135°
2026-05-04 12:25 46.63170 14.08611 37049 ft 455 kts 135°
2026-05-04 12:25 46.58775 14.15246 37050 ft 455 kts 135°
2026-05-04 12:26 46.54376 14.21872 37050 ft 455 kts 136°
2026-05-04 12:26 46.49967 14.28491 37048 ft 456 kts 136°
2026-05-04 12:27 46.45553 14.35108 37043 ft 457 kts 136°
2026-05-04 12:27 46.41130 14.41714 37061 ft 457 kts 136°
2026-05-04 12:28 46.36689 14.48326 37067 ft 458 kts 136°
2026-05-04 12:28 46.32250 14.54932 37068 ft 458 kts 136°
2026-05-04 12:29 46.27793 14.61541 37069 ft 459 kts 136°
2026-05-04 12:29 46.23332 14.68137 37068 ft 460 kts 136°
2026-05-04 12:30 46.18849 14.74751 37071 ft 461 kts 136°
2026-05-04 12:30 46.14367 14.81356 37068 ft 461 kts 136°
2026-05-04 12:31 46.09871 14.87965 37070 ft 461 kts 136°
2026-05-04 12:31 46.05376 14.94557 37072 ft 461 kts 136°
2026-05-04 12:32 45.98630 15.04418 37073 ft 461 kts 136°
2026-05-04 12:33 45.94126 15.10981 37069 ft 461 kts 136°
2026-05-04 12:33 45.89627 15.17511 37068 ft 460 kts 136°
2026-05-04 12:34 45.85115 15.24041 37066 ft 461 kts 136°
2026-05-04 12:34 45.80600 15.30563 37063 ft 461 kts 136°
2026-05-04 12:35 45.76189 15.37241 37059 ft 462 kts 130°
2026-05-04 12:35 45.72087 15.44326 37062 ft 462 kts 130°
2026-05-04 12:36 45.67968 15.51396 37063 ft 463 kts 130°
2026-05-04 12:36 45.63846 15.58450 37063 ft 463 kts 130°
2026-05-04 12:37 45.59717 15.65504 37064 ft 463 kts 130°
2026-05-04 12:37 45.55580 15.72568 37063 ft 463 kts 130°
2026-05-04 12:38 45.51436 15.79612 37060 ft 464 kts 130°
2026-05-04 12:38 45.47282 15.86655 37061 ft 464 kts 130°
2026-05-04 12:39 45.43132 15.93697 37062 ft 465 kts 130°
2026-05-04 12:39 45.38957 16.00732 37063 ft 465 kts 130°
2026-05-04 12:40 45.34800 16.07717 37065 ft 466 kts 130°
2026-05-04 12:40 45.30624 16.14746 37068 ft 466 kts 130°
2026-05-04 12:41 45.26438 16.21769 37071 ft 466 kts 130°
2026-05-04 12:41 45.22242 16.28778 37069 ft 466 kts 130°
2026-05-04 12:42 45.18047 16.35768 37068 ft 466 kts 130°
2026-05-04 12:42 45.13844 16.42756 37066 ft 466 kts 130°
2026-05-04 12:43 45.09592 16.49683 37069 ft 466 kts 131°
2026-05-04 12:43 45.05262 16.56500 37070 ft 466 kts 131°
2026-05-04 12:44 45.00919 16.63305 37072 ft 466 kts 131°
2026-05-04 12:44 44.96589 16.70128 37076 ft 466 kts 131°
2026-05-04 12:45 44.92267 16.76940 37079 ft 466 kts 131°
2026-05-04 12:45 44.87935 16.83755 37084 ft 466 kts 131°
2026-05-04 12:46 44.83600 16.90556 37087 ft 467 kts 131°
2026-05-04 12:46 44.79245 16.97349 37088 ft 467 kts 131°
2026-05-04 12:47 44.74895 17.04126 37093 ft 467 kts 131°
2026-05-04 12:47 44.70539 17.10908 37093 ft 467 kts 131°
2026-05-04 12:48 44.66174 17.17682 37100 ft 467 kts 131°
2026-05-04 12:48 44.61810 17.24451 37099 ft 467 kts 131°
2026-05-04 12:49 44.57438 17.31202 37106 ft 467 kts 131°
2026-05-04 12:49 44.53064 17.37933 37100 ft 467 kts 131°
2026-05-04 12:50 44.48684 17.44664 37104 ft 467 kts 131°
2026-05-04 12:50 44.44306 17.51375 37105 ft 467 kts 131°
2026-05-04 12:51 44.39925 17.58088 37103 ft 467 kts 131°
2026-05-04 12:51 44.35541 17.64789 37108 ft 467 kts 131°
2026-05-04 12:52 44.31145 17.71472 37107 ft 467 kts 131°
2026-05-04 12:52 44.27490 17.77011 37101 ft 467 kts 131°
2026-05-04 12:53 44.23091 17.83675 37107 ft 467 kts 131°
2026-05-04 12:53 44.18685 17.90338 37107 ft 467 kts 131°
2026-05-04 12:54 44.14273 17.96994 37106 ft 468 kts 131°
2026-05-04 12:54 44.09857 18.03644 37108 ft 468 kts 132°
2026-05-04 12:55 44.05425 18.10264 37104 ft 467 kts 132°
2026-05-04 12:55 44.00990 18.16873 37105 ft 468 kts 132°
2026-05-04 12:56 43.96555 18.23476 37109 ft 468 kts 132°
2026-05-04 12:56 43.92109 18.30079 37112 ft 468 kts 132°
2026-05-04 12:57 43.87660 18.36684 37115 ft 469 kts 132°
2026-05-04 12:57 43.83206 18.43279 37115 ft 469 kts 132°
2026-05-04 12:58 43.78745 18.49861 37116 ft 469 kts 132°
2026-05-04 12:58 43.74278 18.56439 37113 ft 469 kts 132°
2026-05-04 12:59 43.69801 18.63013 37113 ft 470 kts 132°
2026-05-04 12:59 43.65317 18.69580 37111 ft 470 kts 132°
2026-05-04 13:00 43.60827 18.76139 37114 ft 470 kts 132°
2026-05-04 13:00 43.56333 18.82704 37114 ft 471 kts 132°
2026-05-04 13:01 43.51824 18.89264 37111 ft 471 kts 132°
2026-05-04 13:01 43.47311 18.95814 37103 ft 471 kts 131°
2026-05-04 13:02 43.42840 19.02410 37107 ft 471 kts 131°
2026-05-04 13:02 43.38437 19.09022 37112 ft 472 kts 130°
2026-05-04 13:03 43.33991 19.15665 37116 ft 472 kts 131°
2026-05-04 13:03 43.29521 19.22289 37118 ft 473 kts 131°
2026-05-04 13:04 43.25042 19.28902 37124 ft 473 kts 131°
2026-05-04 13:04 43.20561 19.35500 37116 ft 473 kts 131°
2026-05-04 13:05 43.16076 19.42095 37120 ft 473 kts 131°
2026-05-04 13:05 43.11586 19.48687 37116 ft 473 kts 131°
2026-05-04 13:06 43.07098 19.55269 37119 ft 473 kts 131°
2026-05-04 13:06 43.02596 19.61849 37122 ft 474 kts 131°
2026-05-04 13:07 42.98079 19.68416 37115 ft 474 kts 131°
2026-05-04 13:07 42.93562 19.74975 37116 ft 475 kts 131°
2026-05-04 13:08 42.89042 19.81539 37112 ft 475 kts 131°
2026-05-04 13:08 42.84513 19.88102 37118 ft 475 kts 131°
2026-05-04 13:09 42.79973 19.94659 37124 ft 476 kts 131°
2026-05-04 13:09 42.75429 20.01216 37128 ft 476 kts 131°
2026-05-04 13:10 42.71039 20.07956 37129 ft 475 kts 127°
2026-05-04 13:10 42.66900 20.14963 37135 ft 475 kts 125°
2026-05-04 13:11 42.62785 20.21982 37138 ft 476 kts 126°
2026-05-04 13:11 42.58586 20.28931 37141 ft 476 kts 127°
2026-05-04 13:12 42.54346 20.35830 37140 ft 476 kts 127°
2026-05-04 13:12 42.50103 20.42728 37139 ft 476 kts 127°
2026-05-04 13:13 42.45872 20.49631 37146 ft 476 kts 127°
2026-05-04 13:13 42.41645 20.56531 37150 ft 476 kts 127°
2026-05-04 13:14 42.37409 20.63416 37160 ft 476 kts 127°
2026-05-04 13:14 42.33192 20.70251 37159 ft 476 kts 127°
2026-05-04 13:15 42.28920 20.77157 37162 ft 476 kts 127°
2026-05-04 13:15 42.24663 20.84018 37154 ft 476 kts 127°
2026-05-04 13:16 42.20434 20.90823 37156 ft 477 kts 127°
2026-05-04 13:16 42.16165 20.97664 37154 ft 476 kts 127°
2026-05-04 13:17 42.11898 21.04487 37148 ft 477 kts 128°
2026-05-04 13:17 42.07150 21.10770 37142 ft 479 kts 134°
2026-05-04 13:18 42.02312 21.16932 37142 ft 479 kts 134°
2026-05-04 13:18 41.97461 21.23080 37137 ft 479 kts 134°
2026-05-04 13:19 41.92600 21.29208 37142 ft 479 kts 134°
2026-05-04 13:19 41.87743 21.35327 37130 ft 479 kts 134°
2026-05-04 13:20 41.82895 21.41446 37129 ft 479 kts 134°
2026-05-04 13:20 41.78040 21.47549 37127 ft 478 kts 134°
2026-05-04 13:21 41.73182 21.53631 37121 ft 477 kts 134°
2026-05-04 13:21 41.68324 21.59707 37120 ft 478 kts 134°
2026-05-04 13:22 41.63459 21.65784 37119 ft 478 kts 134°
2026-05-04 13:22 41.58591 21.71850 37121 ft 479 kts 134°
2026-05-04 13:23 41.53721 21.77908 37121 ft 479 kts 134°
2026-05-04 13:23 41.48838 21.83968 37118 ft 479 kts 134°
2026-05-04 13:24 41.43952 21.90012 37123 ft 479 kts 134°
2026-05-04 13:24 41.39063 21.96049 37123 ft 479 kts 134°
2026-05-04 13:25 41.31719 22.05088 37124 ft 480 kts 134°
2026-05-04 13:25 41.26820 22.11118 37127 ft 480 kts 134°
2026-05-04 13:26 41.21915 22.17132 37125 ft 480 kts 135°
2026-05-04 13:26 41.17008 22.23127 37128 ft 480 kts 135°
2026-05-04 13:27 41.11960 22.28924 37128 ft 480 kts 139°
2026-05-04 13:27 41.06721 22.34441 37121 ft 481 kts 140°
2026-05-04 13:28 41.01469 22.39910 37124 ft 480 kts 139°
2026-05-04 13:28 40.96263 22.45450 37129 ft 480 kts 139°
2026-05-04 13:29 40.91078 22.51028 37117 ft 480 kts 139°
2026-05-04 13:29 40.85932 22.56548 37126 ft 480 kts 139°
2026-05-04 13:30 40.80735 22.62080 37124 ft 480 kts 139°
2026-05-04 13:30 40.75534 22.67599 37122 ft 480 kts 139°
2026-05-04 13:31 40.70334 22.73114 37124 ft 480 kts 139°
2026-05-04 13:31 40.65137 22.78622 37132 ft 479 kts 139°
2026-05-04 13:32 40.59933 22.84110 37130 ft 479 kts 139°
2026-05-04 13:32 40.54731 22.89606 37129 ft 479 kts 140°
2026-05-04 13:33 40.49534 22.95072 37131 ft 479 kts 140°
2026-05-04 13:33 40.44484 23.00752 37129 ft 476 kts 131°
2026-05-04 13:34 40.39934 23.07065 37133 ft 476 kts 131°
2026-05-04 13:34 40.35376 23.13367 37131 ft 476 kts 131°
2026-05-04 13:35 40.28539 23.22796 37133 ft 475 kts 131°
2026-05-04 13:36 40.23979 23.29062 37134 ft 475 kts 132°
2026-05-04 13:36 40.19417 23.35314 37125 ft 475 kts 131°
2026-05-04 13:37 40.14851 23.41573 37127 ft 475 kts 132°
2026-05-04 13:37 40.10286 23.47805 37123 ft 475 kts 132°
2026-05-04 13:38 40.06485 23.52984 37124 ft 475 kts 132°
2026-05-04 13:38 40.01914 23.59201 37120 ft 475 kts 132°
2026-05-04 13:39 39.97344 23.65415 37121 ft 475 kts 132°
2026-05-04 13:39 39.92773 23.71611 37116 ft 475 kts 132°
2026-05-04 13:40 39.88184 23.77805 37122 ft 474 kts 132°
2026-05-04 13:40 39.83605 23.83988 37122 ft 474 kts 132°
2026-05-04 13:41 39.79028 23.90160 37122 ft 474 kts 133°
2026-05-04 13:41 39.74440 23.96323 37123 ft 474 kts 133°
2026-05-04 13:42 39.67559 24.05548 37124 ft 474 kts 133°
2026-05-04 13:42 39.62968 24.11683 37122 ft 474 kts 133°
2026-05-04 13:43 39.58401 24.17781 37124 ft 474 kts 133°
2026-05-04 13:43 39.53808 24.23911 37124 ft 474 kts 133°
2026-05-04 13:44 39.49204 24.30023 37122 ft 474 kts 133°
2026-05-04 13:44 39.44595 24.36137 37120 ft 474 kts 133°
2026-05-04 13:45 39.39992 24.42241 37119 ft 474 kts 133°
2026-05-04 13:45 39.35371 24.48342 37120 ft 475 kts 133°
2026-05-04 13:46 39.30753 24.54444 37122 ft 475 kts 133°
2026-05-04 13:46 39.26170 24.60584 37121 ft 475 kts 133°
2026-05-04 13:47 39.21596 24.66724 37116 ft 475 kts 133°
2026-05-04 13:47 39.17001 24.72846 37118 ft 475 kts 133°
2026-05-04 13:48 39.12394 24.78954 37119 ft 475 kts 133°
2026-05-04 13:48 39.07811 24.85009 37114 ft 475 kts 133°
2026-05-04 13:49 39.03164 24.91034 37117 ft 476 kts 134°
2026-05-04 13:49 38.98474 24.97074 37113 ft 476 kts 134°
2026-05-04 13:50 38.93776 25.03141 37111 ft 476 kts 134°
2026-05-04 13:50 38.89136 25.09134 37115 ft 476 kts 134°
2026-05-04 13:51 38.84435 25.15199 37112 ft 476 kts 134°